Regional Weather Roundup
Issued by NWS

Home | Current Version | Previous Version | Text Only | Print | Product List | Glossary Off
Versions: 1 2 3 4 5 6 7 8 9 10 11 12 13 14 15 16 17 18 19 20 21 22 23 24 25 26 27 28 29 30 31 32 33 34 35 36 37 38 39 40 41 42 43 44 45 46 47 48 49 50

000
ASUS43 KBIS 240310
RWRND

NORTH DAKOTA REGIONAL WEATHER ROUNDUP
NATIONAL WEATHER SERVICE BISMARCK ND
900 PM CST TUE JAN 23 2018

NOTE: "FAIR" INDICATES FEW OR NO CLOUDS BELOW 12,000 FEET WITH NO
SIGNIFICANT WEATHER AND/OR OBSTRUCTIONS TO VISIBILITY.


NDZ001>003-009>011-017-240400-
NORTHWEST NORTH DAKOTA

CITY           SKY/WX    TMP DP  RH WIND       PRES   REMARKS
WILLISTON      CLEAR     15  14  95 SW3       30.09S
MINOT          CLEAR     18  16  92 S7        30.09F FOG     WCI   9
MINOT AFB      CLEAR     14  11  90 S6        30.08F WCI   5
$$

NDZ018>021-031>035-040>046-240400-
SOUTHWEST NORTH DAKOTA

CITY           SKY/WX    TMP DP  RH WIND       PRES   REMARKS
BISMARCK       CLEAR     17  15  92 E3        30.15F
DICKINSON      CLEAR     22  18  85 W12       30.08S WCI  10
GARRISON         N/A      9   6  88 CALM      30.11S
HETTINGER ARPT CLEAR     19  15  84 NW6       30.14S WCI  11
$$

NDZ004>008-012>016-024-026-027-054-240400-
NORTHEAST NORTH DAKOTA

CITY           SKY/WX    TMP DP  RH WIND       PRES   REMARKS
GRAND FORKS    CLOUDY    23  20  88 W5        30.14S WCI  17
GRND FRKS AFB  CLOUDY    24  18  79 NW7       30.14R WCI  15
DEVILS LAKE    CLOUDY    23  19  85 W7        30.13S WCI  15
$$

NDZ022-023-025-028>030-036>039-047>053-240400-
SOUTHEAST NORTH DAKOTA

CITY           SKY/WX    TMP DP  RH WIND       PRES   REMARKS
FARGO          CLOUDY    24  21  88 NW14      30.16R WCI  12
JAMESTOWN      CLOUDY    20  18  92 NW8       30.15R WCI  10
$$




USA.gov is the U.S. government's official web portal to all federal, state and local government web resources and services.